Presure
192 200 195 207 187 213 206 185 180 188 215 212 204 207 192 193 194 195 190 187 189 179 188 188 185 190 191 190 202 202 196 206 208 224 187 175 168 116 120 125 128 128 134 124 116 116 116 120 124
202 199 194 212 214 221 226 150 187 193 193 187 193 195 213 216 208 207 194 195 199 197 199 192 185 185 193 195 204 196 206 201 201 193 220 212 201 159 143 139 123 117 144 144 137 132 116 118 119
188 184 183 182 198 170 143 177 192 195 197 193 192 190 207 208 214 214 217 211 208 200 204 206 202 199 193 193 193 195 193 196 196 205 204 206 215 216 210 175 169 161 132 124 133 118 138 125 124
179 178 193 178 184 165 166 204 201 209 198 210 201 199 204 199 135 156 189 193 206 200 193 184 182 184 174 218 215 206 195 205 198 214 196 226 222 219 243 231 201 168 173 142 135 135 121 147 97
148 185 162 172 177 171 169 132 150 219 211 212 181 194 183 174 106 150 189 112 192 193 208 181 201 202 191 185 209 196 196 215 207 201 211 207 215 231 223 226 238 229 205 170 169 145 166 148 135
189 192 168 169 166 153 162 186 194 199 203 224 209 200 193 189 207 206 201 198 193 192 193 192 192 193 196 222 184 206 211 204 206 214 213 214 227 224 219 219 239 233 239 223 200 174 170 149 159
141 133 167 181 167 158 159 165 189 201 201 204 206 220 158 202 203 198 198 202 216 231 235 230 230 221 229 216 220 214 214 212 203 208 220 216 215 221 218 222 238 248 237 247 226 214 202 203 171
179 171 179 194 168 159 165 180 163 174 185 218 213 206 194 196 213 234 224 244 205 210 221 216 233 233 213 230 215 210 214 218 218 227 209 210 213 237 212 216 233 276 245 243 248 234 230 224 206
177 144 182 168 168 167 170 139 164 174 183 208 202 206 209 224 227 213 216 216 207 196 225 227 229 230 236 235 228 223 221 221 236 241 237 231 209 208 206 208 215 242 245 267 253 250 247 235 228
164 169 179 166 159 167 165 138 172 176 187 203 210 222 229 225 217 221 226 220 213 212 217 199 220 219 219 171 219 219 222 222 222 221 224 227 229 223 220 217 206 209 223 236 245 242 242 251 266
186 156 191 167 172 160 169 141 138 180 186 203 242 228 226 103 220 225 101 213 210 215 220 140 227 128 229 231 228 226 224 221 220 219 219 223 227 224 221 217 223 227 222 221 232 253 239 261 252
191 188 187 185 175 157 168 138 178 186 93 216 231 228 227 233 236 152 244 238 238 239 236 231 218 231 228 233 235 229 227 227 226 225 225 228 229 232 230 228 237 254 234 231 221 245 235 235 237
164 188 176 164 180 176 134 181 95 182 203 227 231 242 244 92 246 244 243 242 239 236 232 229 229 230 236 234 230 230 231 231 230 230 230 229 229 229 228 223 227 228 232 236 233 225 216 251 251
187 188 154 162 167 199 190 186 189 194 234 229 230 178 96 248 263 263 261 261 261 260 261 263 260 257 262 264 261 251 251 251 251 252 248 242 237 231 232 233 231 230 234 229 232 235 235 230 235
192 188 173 197 199 193 189 188 185 110 228 199 231 243 236 226 230 236 231 227 229 230 228 228 236 245 256 243 252 258 259 261 265 263 272 268 272 273 270 268 266 257 255 246 244 230 230 239 239
193 169 202 192 196 197 184 182 187 241 233 253 236 229 229 224 223 222 218 215 80 222 226 273 275 260 253 263 263 268 263 269 287 290 292 292 294 301 301 286 268 257 255 265 275 281 297 298 254
194 197 170 182 199 184 199 202 241 238 248 226 156 228 231 227 219 215 239 273 267 286 290 285 278 281 291 278 267 267 258 248 250 250 254 260 278 293 270 269 291 290 296 295 295 297 276 278 275
192 107 198 186 173 185 183 204 249 249 253 259 250 248 236 145 294 294 287 278 272 257 269 269 279 270 262 252 248 248 287 298 286 276 270 268 271 272 270 272 272 276 279 280 283 289 294 294 299
99 198 195 194 183 185 192 232 258 237 263 118 262 233 333 375 341 322 301 292 294 300 279 317 253 302 294 279 273 268 259 253 251 248 239 241 280 325 324 324 319 315 317 321 280 255 254 259 264
193 193 196 189 188 181 206 246 231 250 234 382 416 365 324 306 296 283 310 305 295 302 308 284 264 258 253 245 263 361 299 307 309 298 276 268 263 259 258 263 265 272 309 314 303 281 323 337 348
192 162 195 188 187 199 196 235 241 239 238 322 315 304 290 285 283 272 277 300 298 257 251 249 300 288 292 288 281 276 265 249 246 242 247 247 243 237 249 251 246 258 250 253 257 264 265 274 289
175 191 185 195 187 215 239 239 220 257 312 295 270 257 252 258 248 242 242 238 236 242 288 293 272 257 248 241 241 240 239 239 240 237 242 245 248 244 244 245 244 233 237 241 240 244 250 256 263
186 147 189 184 197 233 216 252 232 298 276 262 250 239 248 276 287 304 327 337 276 292 259 252 241 238 239 236 227 227 227 227 227 228 228 229 233 235 236 232 234 238 242 242 246 246 239 249 252
187 185 192 205 227 231 213 222 258 266 292 262 250 265 290 304 269 302 325 360 285 251 240 236 233 226 227 224 220 215 216 219 219 229 232 235 240 238 237 241 249 250 237 232 238 241 238 240 249
195 170 182 242 228 230 220 230 251 271 293 253 242 294 283 283 283 267 253 242 235 231 224 226 220 217 218 217 217 211 233 240 235 229 229 232 233 237 240 251 257 255 255 260 241 234 232 240 242
185 183 206 218 231 225 234 240 240 241 289 250 238 329 293 281 252 237 232 225 220 221 217 217 209 213 206 221 232 241 228 223 224 224 228 226 229 238 242 252 256 258 256 260 265 265 238 239 231
181 189 201 238 232 238 238 236 227 267 270 249 338 284 279 249 236 228 225 215 223 217 207 213 203 203 199 234 230 224 224 218 240 249 224 235 344 338 324 303 295 290 278 269 254 237 272 250 236
192 215 223 227 229 248 234 228 251 262 262 241 292 282 257 232 224 226 218 221 213 202 208 205 198 208 243 226 223 221 227 247 269 238 311 400 390 423 429 401 392 384 344 307 291 272 255 239 265
216 240 231 237 219 236 239 222 254 266 260 274 291 272 238 231 226 217 215 211 209 204 206 197 206 206 230 225 228 236 252 275 237 376 388 400 408 394 380 415 405 383 379 378 380 362 285 263 248
245 232 232 209 223 242 235 224 279 275 254 288 294 243 233 221 214 217 208 212 200 192 194 194 198 222 222 226 225 251 271 231 385 376 374 368 367 401 396 377 390 400 379 370 374 377 393 286 277
Wind_Speed
36 37 39 38 40 40 38 38 40 39 34 35 40 48 53 58 58 58 58 59 60 58 63 66 70 68 67 67 64 65 69 64 66 62 74 75 75 56 60 62 64 61 63 59 55 54 52 54 57
33 34 36 35 35 37 36 31 41 42 43 46 48 51 51 57 59 60 58 61 63 62 61 66 68 71 69 68 67 68 64 69 70 73 62 70 73 73 71 70 65 57 70 69 68 66 55 55 55
30 33 36 31 33 31 27 35 40 46 41 45 54 57 53 51 51 53 54 56 59 59 62 65 63 64 69 71 70 70 71 71 71 69 71 71 71 75 79 82 82 79 69 61 68 58 69 64 63
33 36 39 27 34 33 33 41 46 46 51 50 49 53 53 53 36 40 54 56 62 65 64 61 64 66 68 71 76 77 75 75 75 72 73 67 70 73 67 77 83 85 87 71 71 72 61 74 47
29 41 28 24 36 37 41 30 36 45 48 51 52 56 57 60 25 49 63 34 64 65 71 62 69 71 69 69 78 74 72 76 77 69 73 70 72 71 72 74 76 82 86 88 87 78 83 77 74
45 43 28 29 29 33 38 48 56 52 48 51 57 60 64 69 70 72 74 73 70 70 71 68 70 74 75 76 70 78 81 75 76 76 72 73 75 73 75 78 78 79 82 86 90 92 89 80 82
33 29 31 45 33 34 34 37 54 59 58 54 51 51 54 65 69 71 71 74 75 72 72 73 73 71 71 74 79 81 80 80 75 77 82 74 73 72 72 75 78 78 80 82 88 91 92 93 91
46 40 43 55 35 37 40 52 41 53 59 60 60 60 64 70 73 73 75 71 69 68 70 70 71 73 72 76 77 78 80 82 83 88 76 74 76 76 72 73 74 79 77 82 84 91 92 92 95
46 36 49 40 37 42 46 44 45 58 63 74 71 71 73 71 68 68 67 67 67 68 70 73 73 72 72 77 78 79 80 81 84 83 84 80 75 74 73 73 72 74 75 80 82 87 90 91 93
44 47 48 41 40 45 48 46 56 65 75 78 78 74 70 65 65 66 66 68 68 70 73 72 74 74 73 65 75 76 79 81 81 82 82 82 82 80 78 75 73 73 75 74 76 79 82 86 89
50 45 55 45 47 45 51 50 49 77 79 86 74 68 67 33 64 64 18 67 70 71 73 58 74 56 76 77 77 78 79 81 81 82 83 82 81 80 79 77 77 77 77 76 77 74 80 76 81
52 49 51 54 48 47 53 52 70 78 35 89 79 75 71 69 65 42 61 63 65 67 68 71 75 73 74 73 74 75 77 78 80 81 82 82 81 81 81 80 78 73 78 79 79 77 80 82 82
47 53 48 51 60 60 49 69 26 77 92 81 75 70 67 36 64 61 60 62 63 65 67 71 76 77 74 70 73 76 78 78 81 82 82 83 83 83 82 82 81 81 79 79 83 83 82 77 80
58 59 46 46 56 64 64 66 73 82 78 73 71 58 43 63 61 59 58 58 59 62 64 65 66 70 69 70 70 71 72 74 76 77 79 82 84 87 86 86 86 86 85 85 85 85 86 88 88
62 61 57 65 65 65 62 66 66 28 72 70 58 59 60 65 67 63 61 61 62 63 61 66 67 69 69 69 69 69 69 71 72 74 75 76 77 77 78 78 79 81 82 85 88 89 88 89 90
67 62 72 66 67 67 60 59 66 72 69 57 58 60 61 62 60 63 65 66 10 69 69 69 69 70 68 69 70 70 69 69 66 65 66 68 69 70 72 75 78 80 79 79 81 80 79 81 90
71 70 58 68 75 64 75 82 78 70 60 57 34 54 57 56 59 60 63 63 62 56 53 54 56 55 54 56 58 61 61 64 64 64 65 64 60 57 64 64 61 64 64 66 68 68 76 77 80
72 29 74 71 58 63 67 82 74 65 60 56 55 56 54 43 59 56 55 55 53 57 52 54 51 50 51 51 55 59 47 42 43 44 48 50 50 51 53 56 58 59 60 60 61 60 60 61 64
27 74 72 74 68 65 77 86 71 68 63 29 64 57 52 31 30 26 32 35 31 33 42 35 48 36 36 36 37 37 41 44 46 47 49 51 47 41 45 47 51 55 57 58 61 60 59 62 64
71 73 75 74 75 74 92 81 76 70 66 43 34 19 21 23 26 36 34 28 28 31 27 23 26 32 36 40 38 39 39 39 33 30 26 28 29 33 35 34 34 29 45 49 46 37 48 47 45
73 52 73 69 75 86 65 79 74 68 66 31 25 25 27 26 24 23 26 30 26 18 22 27 26 22 21 20 20 21 22 26 29 32 33 34 36 39 39 40 41 38 40 38 40 37 34 30 25
67 75 67 80 78 90 80 76 69 60 31 30 32 30 22 27 25 24 23 25 26 27 24 19 14 15 17 20 22 25 28 30 33 36 38 40 40 40 41 42 43 46 45 44 45 42 39 37 34
75 55 73 71 87 80 75 65 67 42 41 40 37 40 39 39 43 44 46 44 21 19 11 12 14 17 20 23 27 31 34 37 40 43 45 47 48 48 48 44 45 48 49 47 47 46 44 40 39
74 74 81 88 83 75 70 66 57 52 37 36 38 41 42 38 28 23 27 24 12 13 14 17 21 25 29 32 33 34 38 42 43 47 50 53 56 56 56 56 57 57 51 51 52 51 48 43 41
72 65 67 77 76 72 69 61 58 51 42 40 42 40 31 21 17 17 15 15 17 19 22 24 28 31 34 37 40 39 46 48 47 48 52 55 57 58 60 62 63 62 60 61 57 54 51 51 47
68 69 82 79 74 70 67 62 58 53 40 38 40 32 18 13 13 15 16 17 20 23 25 28 30 36 37 44 47 49 50 52 54 56 59 60 64 70 68 70 69 66 64 64 64 63 59 58 49
68 82 82 72 70 64 61 61 56 46 38 38 33 19 10 11 10 12 15 19 22 25 26 36 35 37 34 48 50 54 58 58 67 71 60 70 85 88 89 92 90 85 76 71 65 58 66 64 57
79 83 81 74 67 56 59 58 51 44 36 36 21 9 8 9 10 13 18 20 25 26 33 34 31 48 48 51 54 57 61 71 76 69 70 62 63 59 63 67 70 73 86 90 81 74 67 62 67
82 76 71 66 62 60 55 54 47 39 35 30 16 6 6 8 10 16 19 23 26 30 36 32 45 44 51 56 61 68 73 78 72 64 62 58 56 57 58 52 63 66 66 66 66 75 78 70 66
71 71 68 58 62 55 55 53 44 35 33 20 8 5 8 11 16 17 23 26 26 27 30 35 45 52 57 61 65 74 79 71 58 55 57 53 57 52 51 52 47 56 61 60 59 62 63 76 75
Wind_Direction
291 297 289 292 292 298 292 291 294 286 295 296 288 280 268 268 269 268 266 267 268 271 267 267 268 268 268 267 266 264 262 264 261 263 253 252 253 260 256 253 254 252 248 248 252 252 252 249 249
297 297 296 306 311 313 309 292 289 285 283 281 280 278 276 274 273 271 269 270 271 270 268 266 268 271 272 272 269 267 266 262 261 259 263 258 255 252 255 252 255 253 247 246 247 247 254 252 250
294 297 297 304 317 309 297 303 302 298 291 283 283 283 289 288 282 276 273 272 271 273 273 273 274 272 272 272 270 268 266 264 261 263 260 259 260 258 254 250 252 252 251 253 249 250 246 251 250
301 303 309 320 323 302 306 320 312 303 297 286 283 286 290 284 287 285 279 281 284 277 272 267 266 266 264 276 271 272 269 271 267 268 262 270 269 264 270 258 253 251 250 254 250 248 254 243 248
293 306 306 329 325 323 320 283 299 306 294 285 295 288 288 289 280 283 285 282 282 280 278 277 279 277 275 271 275 273 272 270 270 267 271 267 270 273 265 263 264 256 248 250 250 248 249 248 248
310 301 312 313 325 313 317 324 323 315 310 296 291 286 286 287 286 283 284 283 281 281 281 279 278 278 278 272 274 274 274 273 274 273 272 271 273 269 265 261 264 260 258 252 246 247 248 249 247
297 300 313 315 324 311 297 309 317 319 311 305 298 295 286 288 289 287 288 289 288 284 281 280 280 277 271 272 268 271 274 274 271 273 272 271 269 268 265 266 266 260 256 256 251 248 245 246 247
313 314 313 308 318 310 311 322 306 313 318 314 309 302 294 292 291 287 287 284 288 287 284 281 274 270 275 269 273 275 274 272 272 271 269 267 269 269 264 266 268 260 258 253 252 250 248 246 244
312 303 313 303 313 314 314 297 301 309 316 319 314 303 299 297 293 290 289 287 285 285 280 277 277 276 272 271 272 273 274 274 273 273 273 272 269 267 265 265 267 267 263 258 255 254 252 249 247
306 303 304 307 310 312 314 297 311 312 319 317 310 304 300 297 296 293 288 286 286 285 283 283 280 278 277 274 275 275 274 274 274 274 273 272 272 270 268 267 264 264 263 260 257 255 253 253 252
315 304 313 309 306 311 308 298 299 315 315 316 306 304 303 319 292 290 292 288 286 282 280 280 276 279 273 272 272 273 273 273 274 275 274 273 272 270 268 266 265 265 262 260 258 255 253 252 251
313 310 309 307 305 302 308 304 312 314 302 315 309 308 305 297 295 293 286 285 282 280 279 278 278 275 274 275 274 273 273 272 272 272 272 272 272 271 269 268 265 262 262 260 259 255 254 252 251
311 311 307 309 311 310 305 315 310 319 318 313 307 301 297 304 293 292 289 285 283 281 280 279 279 279 276 274 274 273 272 272 271 271 271 271 271 270 268 268 266 264 261 257 256 256 256 251 250
317 313 316 312 308 312 312 315 317 319 313 312 308 307 309 298 295 293 290 287 286 284 282 280 280 279 279 277 274 272 271 271 270 269 268 266 266 266 265 265 264 263 260 260 257 254 253 253 251
316 312 313 314 315 313 314 318 321 316 313 307 303 300 298 298 299 298 295 292 290 287 285 281 280 281 284 278 279 279 279 279 277 275 273 271 270 268 267 267 266 262 260 258 257 259 258 254 252
316 312 315 314 315 316 316 317 318 318 314 307 304 302 299 296 296 294 291 290 314 288 287 278 277 278 279 277 279 279 280 280 280 279 277 275 274 272 270 269 269 267 266 265 264 264 263 262 254
316 316 311 317 316 315 324 324 321 316 310 304 304 296 294 292 287 285 284 282 283 282 281 277 276 277 275 275 275 274 274 276 278 278 278 277 276 276 270 268 270 268 267 265 263 263 262 261 260
316 309 313 313 311 322 325 322 318 317 314 311 307 305 297 291 293 293 291 288 288 286 285 282 280 278 279 279 277 276 278 278 276 274 275 274 274 271 271 272 271 268 266 264 264 261 260 259 260
295 312 312 315 319 324 326 320 321 322 321 274 313 307 296 301 303 309 305 297 297 294 276 298 285 302 301 290 282 276 275 275 276 277 278 277 277 277 275 274 271 270 268 268 266 262 257 256 255
312 313 314 317 322 323 321 322 324 325 325 306 304 320 326 316 305 303 313 302 300 302 297 295 287 286 286 290 293 293 287 285 283 287 292 287 282 279 276 277 277 277 265 263 265 273 268 269 268
311 312 314 318 322 321 322 325 324 324 323 331 331 325 313 317 337 330 329 322 309 299 290 289 312 300 304 316 317 312 307 302 298 295 290 285 282 279 280 276 273 267 267 264 262 265 264 266 256
313 313 316 322 325 319 323 324 325 327 339 337 336 327 316 320 308 308 311 308 302 299 323 324 330 322 320 313 307 302 302 303 300 297 296 292 286 279 277 272 269 264 264 265 264 263 261 259 255
311 320 319 323 321 320 322 320 325 339 331 325 319 316 325 335 329 320 311 304 312 330 352 337 321 310 312 317 315 317 316 315 310 306 302 297 293 288 283 274 271 271 269 263 262 261 254 256 254
311 316 318 317 317 319 322 324 326 332 333 329 325 335 334 327 335 350 351 354 0 1 352 336 333 330 332 330 325 315 312 308 304 302 298 295 292 287 283 280 276 270 262 262 263 261 255 250 255
310 311 322 316 317 317 320 321 329 336 335 334 331 337 332 336 10 24 19 10 2 355 349 345 343 340 336 330 325 319 313 310 306 302 300 297 293 289 285 280 275 270 265 259 254 255 255 255 252
317 320 315 317 317 318 320 322 328 330 336 328 332 328 342 15 14 1 0 353 350 349 346 348 342 342 338 328 321 320 317 315 313 310 307 302 299 293 289 281 275 268 263 260 256 248 248 249 246
320 316 316 314 316 317 319 321 327 334 333 328 331 337 0 6 0 356 352 343 352 349 349 349 341 340 323 325 324 323 320 317 313 309 306 303 284 279 274 270 268 265 260 255 251 244 246 241 243
314 309 311 313 316 315 317 320 328 330 325 330 334 341 359 337 341 349 350 355 352 348 348 345 337 345 329 327 325 321 321 319 315 314 308 305 300 292 279 270 266 263 259 254 250 245 240 237 236
308 307 310 310 317 315 315 321 327 326 323 331 331 344 320 346 344 350 351 353 354 350 349 347 348 339 330 331 330 329 326 323 320 317 313 312 306 292 287 282 264 258 255 253 250 245 238 233 232
304 307 308 312 315 312 314 323 322 322 323 323 318 318 323 327 340 353 350 352 349 342 345 347 347 340 337 337 334 333 331 327 328 330 327 331 331 316 294 280 278 259 250 249 246 244 239 233 228